Regional Weather Roundup
Issued by NWS

Home | Current Version | Previous Version | Graphics & Text | Print | Product List | Glossary On
Versions: 1 2 3 4 5 6 7 8 9 10 11 12 13 14 15 16 17 18 19 20 21 22 23 24 25 26 27 28 29 30 31 32 33 34 35 36 37 38 39 40 41 42 43 44 45 46 47 48 49 50
000
ASUS43 KMKX 260500
RWRWI

WISCONSIN REGIONAL WEATHER ROUNDUP
NATIONAL WEATHER SERVICE MILWAUKEE/SULLIVAN WI
1100 PM CST TUE NOV 25 2014

NOTE: "FAIR" INDICATES FEW OR NO CLOUDS BELOW 12,000 FEET WITH NO
SIGNIFICANT WEATHER AND/OR OBSTRUCTIONS TO VISIBILITY.

WIZ001-002-006>008-014>016-023>028-260600-
NORTHWEST WISCONSIN

CITY           SKY/WX    TMP DP  RH WIND       PRES   REMARKS
SUPERIOR ARPT  CLOUDY    19  13  78 SW3       30.10R
ASHLAND        CLOUDY    12   9  87 S5        30.10S WCI   4
HAYWARD        CLOUDY    19  15  84 CALM      30.06S
SIREN          CLOUDY    21  16  80 CALM      30.06R
CUMBERLAND     CLOUDY    21  16  79 CALM      30.05S
RICE LAKE      CLOUDY    22  15  76 CALM      30.07R
CHETEK         CLOUDY    21  16  79 CALM      30.07R
LADYSMITH      CLOUDY    21  16  82 CALM      30.08R
EAU CLAIRE     NOT AVBL
MENOMONIE      CLOUDY    24  17  74 CALM      30.08R
NEW RICHMOND   CLOUDY    24  17  74 SE5       30.06R WCI  18
OSCEOLA        CLOUDY    24  19  82 SE6       30.08S WCI  17
$$

WIZ003>005-009-010-017-018-260600-
NORTH CENTRAL WISCONSIN

CITY           SKY/WX    TMP DP  RH WIND       PRES   REMARKS
MANITOWISH WTR MOCLDY     0  -3  87 CALM      30.05S
ARBOR VITAE    PTCLDY     4   1  85 CALM      30.06R
WOODRUFF       PTCLDY     4   1  85 CALM      30.06R
RHINELANDER    MOCLDY     1  -2  87 CALM      30.07R
EAGLE RIVER    CLEAR     -1  -6  80 CALM      30.06R
LAND O LAKES   CLEAR     -5 -10  82 CALM      30.07R
PHILLIPS       CLOUDY    14  11  90 CALM      30.05R
TOMAHAWK       CLOUDY     3   0  88 CALM      30.08R
MEDFORD        CLOUDY    19  15  84 CALM      30.06R
MERRILL        CLOUDY     5   2  88 CALM      30.09R
$$

WIZ029-030-035-036-043>047-260600-
CENTRAL WISCONSIN

CITY           SKY/WX    TMP DP  RH WIND       PRES   REMARKS
WAUSAU         CLOUDY    10   8  92 E6        30.09R WCI   0
MOSINEE        CLOUDY    10  10 100 E3        30.10R
MARSHFIELD     CLOUDY    21  15  78 S3        30.08R
STEVENS POINT  MOCLDY     3   1  88 CALM      30.12R
WAUPACA        CLEAR     10   7  85 CALM      30.15R
WAUTOMA        NOT AVBL
WISC RAPIDS    CLOUDY    18  13  80 S3        30.13R
CAMP DOUGLAS   NOT AVBL
$$

WIZ011>013-019>022-031-037>040-048>050-260600-
NORTHEAST WISCONSIN

CITY           SKY/WX    TMP DP  RH WIND       PRES   REMARKS
ANTIGO         CLOUDY    -6  -9  85 CALM      30.09R
SHAWANO        CLEAR     15  12  88 CALM      30.15R
OCONTO         MOCLDY    17  16  97 CALM      30.16R
STURGEON BAY   CLOUDY    21  14  73 S6        30.15S WCI  14
GREEN BAY      PTCLDY    14  11  87 CALM      30.16R
MANITOWOC      NOT AVBL
APPLETON       CLEAR     16  14  93 CALM      30.14R
CLINTONVILLE   CLEAR      9   5  85 CALM      30.14R FOG
OSHKOSH        CLEAR     14  11  87 S5        30.15R WCI   6
$$

WIZ032>034-041-042-053>061-260600-
SOUTHWEST WISCONSIN

CITY           SKY/WX    TMP DP  RH WIND       PRES   REMARKS
LA CROSSE      CLOUDY    19  14  81 E6        30.11F WCI  11
SPARTA         MOCLDY    17  14  87 CALM      30.12S
VIROQUA        PTCLDY    15  13  91 SE3       30.08R
BOSCOBEL       CLEAR      9   4  80 CALM      30.14F
PRAIRIE DU CHI CLEAR     14  12  89 SE5       30.13R WCI   7
PLATTEVILLE    CLEAR     15  13  91 CALM      30.13F
$$

WIZ056-057-062-063-064-067-068-260600-
SOUTH CENTRAL WISCONSIN

CITY           SKY/WX    TMP DP  RH WIND       PRES   REMARKS
REEDSBURG      CLEAR      9   6  91 CALM      30.12S
BARABOO/DELLS  CLEAR      8   6  89 S5        30.12S WCI   0
LONE ROCK      NOT AVBL
MINERAL POINT  CLEAR     16  12  86 CALM      30.12R
MADISON        CLEAR     14  12  92 W3        30.15R
MIDDLETON      CLEAR      6   2  84 CALM      30.15R
WATERTOWN      CLEAR     13  12  98 CALM      30.14F
MONROE         FAIR      14  12  92 SW6       30.12S WCI   5
JANESVILLE     CLEAR     10   9  92 CALM      30.15S
$$

WIZ051-052-058>065-066-070>072-260600-
SOUTHEAST WISCONSIN

CITY           SKY/WX    TMP DP  RH WIND       PRES   REMARKS
MILWAUKEE      CLOUDY    20  14  77 S6        30.18R WCI  12
WAUKESHA       PTCLDY    14  12  92 CALM      30.16R
MILWAUKEE/TIMM CLOUDY    21  16  79 SW3       30.18R
RACINE         CLOUDY    20  14  77 SW6       30.20R WCI  12
BURLINGTON     CLEAR     10   9  95 SW5       30.16S WCI   2
KENOSHA        CLEAR     16  13  88 S6        30.18S WCI   7
FOND DU LAC    MOCLDY    15  12  88 SW3       30.15R
SHEBOYGAN      CLOUDY    21  16  81 S3        30.16S
WEST BEND      CLOUDY    21  16  79 CALM      30.15S
JUNEAU         CLOUDY    17  14  88 S6        30.15R WCI   8
$$

LSZ147-162-260600-
LAKE SUPERIOR

STATION/POSITION TIME  TEMP    WIND        PRES    WAVE
                       AIR SEA DIR/SP/G            HT/PER
                 (UTC) (F)     (DEG/KT/KT) (MB)    (FT/S)
DEVILS ISLAND    0400   23     230/ 11/ 13 1019.7R
PORT WING        0400   15     160/  2/  3 1019.0
SAXON HARBOR     0400   11     190/  2/ 13 1019.0R
$$

LMZ867-665-643>646-260600-
LAKE MICHIGAN

STATION/POSITION TIME  TEMP    WIND        PRES    WAVE
                       AIR SEA DIR/SP/G            HT/PER
                 (UTC) (F)     (DEG/KT/KT) (MB)    (FT/S)
CHAMBERS ISLAND  0400   23     220/  6/  9 1020.7R
N MID LAKE BUOY  0350   28 42  230/  4/  8 1021.2R   1/ 5
NORTHPORT PIER   0403   25     220/  3/  7 1020.7R
SISTER BAY       0443           CALM  /  3   N/A
ALGOMA LAKESHORE 0313          260/  7/ 10   N/A
KEWAUNEE LAKESHO 0400   21        CALM     1020.4R
SHEBOYGAN LAKESH 0400   21 36  260/  6/  7 1022.9R
PORT WASHINGTON  0400   23     230/  4/  7 1022.4
MILWAUKEE LAKESH 0400   22     260/  6/ 10   N/A
S MID LAKE BUOY  0350   28 42  210/ 12/ 16 1022.9R   2/ 6
KENOSHA   LAKESH 0400   20     210/  5/  8 1022.4R
$$

TC  - TEMPERATURE IN CELSIUS
VSB - VISIBILITY IN STATUTE MILES
WCI - WIND CHILL INDEX
HX  - HEAT INDEX




USA.gov is the U.S. government's official web portal to all federal, state and local government web resources and services.